軌道要素
Epoch 2011 Aug. 27.0 TT = JDT 2455800.5
T 2011 Sept. 10.72638 TT MPC
q 0.4825036 (2000.0) P Q
z +0.0000224 Peri. 343.80825 +0.60234978 +0.79800100
+/-0.0000014 Node 323.22395 -0.72875805 +0.53994352
e 0.9999892 Incl. 1.83906 -0.32570915 +0.26768525
From 1896 observations 2010 Dec. 10-2011 Sept. 7, mean residual 0".5.
|